| time (UTC) | temp C | wind direction | speed KPH | gust KPH | rain 1hr cm | rain 24hr cm | rain mn cm | humidity % | barometer mb |
| 20260503232114 | 27 | 325 | 6.4 | 8.0 | 0.00 | 0.00 | 0.00 | 31 | 1009.0 |
| 20260503231612 | 26 | 9 | 6.4 | 8.0 | 0.00 | 0.00 | 0.00 | 32 | 1009.3 |
| 20260503231103 | 26 | 355 | 6.4 | 8.0 | 0.00 | 0.00 | 0.00 | 33 | 1009.3 |
| 20260503230604 | 26 | 359 | 6.4 | 8.0 | 0.00 | 0.00 | 0.00 | 33 | 1009.3 |
| 20260503225604 | 26 | 359 | 6.4 | 9.7 | 0.00 | 0.00 | 0.00 | 34 | 1009.4 |
| 20260503225347 | 26 | 9 | 6.4 | 9.7 | 0.00 | 0.00 | 0.00 | 34 | 1009.4 |
| 20260503224603 | 26 | 9 | 6.4 | 11.3 | 0.00 | 0.00 | 0.00 | 37 | 1009.7 |
| 20260503224101 | 26 | 9 | 8.0 | 11.3 | 0.00 | 0.00 | 0.00 | 36 | 1009.7 |
| 20260503223602 | 26 | 4 | 8.0 | 11.3 | 0.00 | 0.00 | 0.00 | 35 | 1009.6 |
| 20260503223101 | 26 | 355 | 8.0 | 11.3 | 0.00 | 0.00 | 0.00 | 35 | 1009.8 |
| 20260503222602 | 25 | 359 | 9.7 | 14.5 | 0.00 | 0.00 | 0.00 | 36 | 1009.8 |
| 20260503222355 | 25 | 9 | 9.7 | 14.5 | 0.00 | 0.00 | 0.00 | 37 | 1010.0 |
| 20260503221557 | 25 | 4 | 9.7 | 14.5 | 0.00 | 0.00 | 0.00 | 36 | 1010.0 |
| 20260503221050 | 25 | 9 | 9.7 | 14.5 | 0.00 | 0.00 | 0.00 | 36 | 1010.0 |
| 20260503220543 | 25 | 19 | 9.7 | 16.1 | 0.00 | 0.00 | 0.00 | 37 | 1010.2 |
| 20260503220042 | 25 | 348 | 9.7 | 16.1 | 0.00 | 0.00 | 0.00 | 38 | 1010.2 |
| 20260503215911 | 25 | 4 | 9.7 | 14.5 | 0.00 | 0.00 | 0.00 | 37 | 1010.2 |
| 20260503214828 | 25 | 342 | 12.9 | 17.7 | 0.00 | 0.00 | 0.00 | 38 | 1010.3 |
| 20260503214036 | 24 | 9 | 12.9 | 17.7 | 0.00 | 0.00 | 0.00 | 39 | 1010.3 |
| 20260503213535 | 24 | 9 | 11.3 | 17.7 | 0.00 | 0.00 | 0.00 | 39 | 1010.5 |
| 20260503213034 | 25 | 9 | 9.7 | 16.1 | 0.00 | 0.00 | 0.00 | 40 | 1010.5 |
| 20260503212535 | 24 | 15 | 9.7 | 16.1 | 0.00 | 0.00 | 0.00 | 41 | 1010.5 |
| 20260503212034 | 24 | 353 | 11.3 | 17.7 | 0.00 | 0.00 | 0.00 | 42 | 1010.7 |
| 20260503211532 | 24 | 25 | 11.3 | 17.7 | 0.00 | 0.00 | 0.00 | 40 | 1010.7 |
| 20260503211318 | 24 | 359 | 11.3 | 17.7 | 0.00 | 0.00 | 0.00 | 39 | 1010.7 |
| 20260503210822 | 24 | 346 | 9.7 | 17.7 | 0.00 | 0.00 | 0.00 | 40 | 1010.8 |
| 20260503210029 | 24 | 30 | 11.3 | 17.7 | 0.00 | 0.00 | 0.00 | 41 | 1010.8 |
| 20260503205529 | 24 | 9 | 9.7 | 17.7 | 0.00 | 0.00 | 0.00 | 41 | 1010.8 |
| 20260503205030 | 23 | 345 | 9.7 | 16.1 | 0.00 | 0.00 | 0.00 | 44 | 1011.1 |
| 20260503204533 | 23 | 354 | 11.3 | 16.1 | 0.00 | 0.00 | 0.00 | 42 | 1011.1 |
| 20260503204047 | 23 | 359 | 11.3 | 17.7 | 0.00 | 0.00 | 0.00 | 42 | 1011.1 |
| 20260503203015 | 23 | 33 | 11.3 | 17.7 | 0.00 | 0.00 | 0.00 | 42 | 1011.3 |
| 20260503202804 | 23 | 9 | 9.7 | 16.1 | 0.00 | 0.00 | 0.00 | 44 | 1011.3 |
| 20260503202011 | 23 | 359 | 9.7 | 16.1 | 0.00 | 0.00 | 0.00 | 43 | 1011.4 |
| 20260503201510 | 23 | 344 | 9.7 | 16.1 | 0.00 | 0.00 | 0.00 | 45 | 1011.4 |
| 20260503201010 | 23 | 4 | 9.7 | 16.1 | 0.00 | 0.00 | 0.00 | 44 | 1011.4 |
| 20260503200510 | 22 | 4 | 8.0 | 14.5 | 0.00 | 0.00 | 0.00 | 44 | 1011.7 |
| 20260503200010 | 22 | 9 | 8.0 | 12.9 | 0.00 | 0.00 | 0.00 | 45 | 1011.7 |
| 20260503195504 | 22 | 9 | 9.7 | 14.5 | 0.00 | 0.00 | 0.00 | 44 | 1011.7 |
| 20260503195022 | 22 | 348 | 9.7 | 14.5 | 0.00 | 0.00 | 0.00 | 46 | 1011.8 |
| 20260503194004 | 22 | 15 | 9.7 | 14.5 | 0.00 | 0.00 | 0.00 | 45 | 1011.8 |
| 20260503193502 | 22 | 19 | 8.0 | 14.5 | 0.00 | 0.00 | 0.00 | 46 | 1012.0 |
| 20260503193003 | 22 | 9 | 8.0 | 14.5 | 0.00 | 0.00 | 0.00 | 46 | 1012.0 |
| 20260503192001 | 21 | 15 | 9.7 | 11.3 | 0.00 | 0.00 | 0.00 | 47 | 1012.3 |
| 20260503191502 | 21 | 333 | 9.7 | 14.5 | 0.00 | 0.00 | 0.00 | 47 | 1012.3 |
| 20260503191006 | 21 | 342 | 8.0 | 14.5 | 0.00 | 0.00 | 0.00 | 47 | 1012.3 |
| 20260503190506 | 21 | 352 | 9.7 | 16.1 | 0.00 | 0.00 | 0.00 | 48 | 1012.3 |
| 20260503190002 | 21 | 338 | 9.7 | 16.1 | 0.00 | 0.00 | 0.00 | 48 | 1012.3 |
| 20260503185501 | 21 | 4 | 9.7 | 17.7 | 0.00 | 0.00 | 0.00 | 49 | 1012.3 |
| 20260503184955 | 20 | 23 | 9.7 | 17.7 | 0.00 | 0.00 | 0.00 | 49 | 1012.6 |
| 20260503184731 | 20 | 350 | 9.7 | 17.7 | 0.00 | 0.00 | 0.00 | 49 | 1012.6 |
| 20260503183948 | 20 | 9 | 11.3 | 17.7 | 0.00 | 0.00 | 0.00 | 50 | 1012.6 |
| 20260503183448 | 20 | 9 | 9.7 | 17.7 | 0.00 | 0.00 | 0.00 | 51 | 1012.7 |
| 20260503182950 | 20 | 333 | 9.7 | 16.1 | 0.00 | 0.00 | 0.00 | 51 | 1012.7 |
| 20260503182729 | 20 | 16 | 9.7 | 16.1 | 0.00 | 0.00 | 0.00 | 52 | 1012.7 |
| 20260503181947 | 20 | 14 | 9.7 | 16.1 | 0.00 | 0.00 | 0.00 | 53 | 1012.8 |
| 20260503181447 | 19 | 343 | 9.7 | 16.1 | 0.00 | 0.00 | 0.00 | 53 | 1012.8 |
| 20260503180946 | 19 | 359 | 8.0 | 16.1 | 0.00 | 0.00 | 0.00 | 53 | 1012.8 |
| 20260503180729 | 19 | 23 | 9.7 | 14.5 | 0.00 | 0.00 | 0.00 | 52 | 1012.9 |
| 20260503175944 | 19 | 23 | 8.0 | 14.5 | 0.00 | 0.00 | 0.00 | 52 | 1012.9 |
| 20260503175438 | 19 | 4 | 8.0 | 16.1 | 0.00 | 0.00 | 0.00 | 53 | 1012.9 |
| 20260503174937 | 18 | 352 | 8.0 | 16.1 | 0.00 | 0.00 | 0.00 | 53 | 1012.9 |
| 20260503174436 | 18 | 350 | 8.0 | 11.3 | 0.00 | 0.00 | 0.00 | 54 | 1012.9 |
| 20260503174218 | 18 | 14 | 9.7 | 11.3 | 0.00 | 0.00 | 0.00 | 54 | 1012.9 |
| 20260503173431 | 18 | 359 | 9.7 | 16.1 | 0.00 | 0.00 | 0.00 | 56 | 1013.0 |
| 20260503173216 | 18 | 359 | 11.3 | 17.7 | 0.00 | 0.00 | 0.00 | 56 | 1013.0 |
| 20260503172433 | 18 | 347 | 9.7 | 17.7 | 0.00 | 0.00 | 0.00 | 58 | 1013.0 |
| 20260503171929 | 18 | 9 | 8.0 | 16.1 | 0.00 | 0.00 | 0.00 | 59 | 1013.1 |
| 20260503171431 | 17 | 354 | 9.7 | 16.1 | 0.00 | 0.00 | 0.00 | 59 | 1013.1 |
| 20260503170929 | 17 | 9 | 8.0 | 16.1 | 0.00 | 0.00 | 0.00 | 59 | 1013.1 |
| 20260503170429 | 17 | 15 | 8.0 | 16.1 | 0.00 | 0.00 | 0.00 | 60 | 1013.2 |
| 20260503160146 | 13 | 18 | 4.8 | 8.0 | 0.00 | 0.00 | 0.00 | 80 | 1013.4 |
| 20260503150337 | 12 | 9 | 6.4 | 9.7 | 0.00 | 0.00 | 0.00 | 87 | 1013.4 |
| 20260503131235 | 10 | 17 | 1.6 | 4.8 | 0.00 | 0.00 | 0.00 | 88 | 1012.9 |
| 20260503130731 | 10 | 9 | 1.6 | 3.2 | 0.00 | 0.00 | 0.00 | 88 | 1012.9 |
| 20260503130230 | 10 | 9 | 1.6 | 4.8 | 0.00 | 0.00 | 0.00 | 88 | 1012.9 |
| 20260503120131 | 11 | 9 | 1.6 | 4.8 | 0.00 | 0.00 | 0.00 | 86 | 1013.4 |
| 20260503110601 | 11 | 53 | 0.0 | 1.6 | 0.00 | 0.00 | 0.00 | 85 | 1013.4 |
| 20260503090436 | 12 | 53 | 1.6 | 3.2 | 0.00 | 0.00 | 0.00 | 79 | 1013.6 |
| 20260503080843 | 13 | 26 | 1.6 | 4.8 | 0.00 | 0.00 | 0.00 | 74 | 1013.6 |
| 20260503080345 | 13 | 26 | 1.6 | 4.8 | 0.00 | 0.00 | 0.00 | 75 | 1013.6 |
| 20260503080123 | 13 | 9 | 3.2 | 4.8 | 0.00 | 0.00 | 0.00 | 74 | 1013.6 |
| 20260503072831 | 13 | 335 | 0.0 | 3.2 | 0.00 | 0.00 | 0.00 | 70 | 1013.6 |
| 20260503072328 | 13 | 335 | 1.6 | 3.2 | 0.00 | 0.00 | 0.00 | 70 | 1013.6 |
| 20260503071829 | 13 | 335 | 0.0 | 3.2 | 0.00 | 0.00 | 0.00 | 70 | 1013.5 |
| 20260503071326 | 14 | 335 | 0.0 | 1.6 | 0.00 | 0.00 | 0.00 | 70 | 1013.5 |
| 20260503070817 | 14 | 335 | 0.0 | 1.6 | 0.00 | 0.00 | 0.00 | 69 | 1013.5 |
| 20260503070311 | 14 | 335 | 0.0 | 1.6 | 0.00 | 0.00 | 0.00 | 68 | 1013.4 |
| 20260503060256 | 16 | 310 | 1.6 | 3.2 | 0.00 | 0.00 | 0.00 | 59 | 1013.4 |
| 20260503054750 | 16 | 219 | 1.6 | 4.8 | 0.00 | 0.00 | 0.00 | 60 | 1013.3 |
| 20260503054236 | 16 | 240 | 3.2 | 6.4 | 0.00 | 0.00 | 0.00 | 59 | 1013.3 |
| 20260503053736 | 17 | 225 | 3.2 | 6.4 | 0.00 | 0.00 | 0.00 | 59 | 1013.3 |
| 20260503053236 | 17 | 247 | 3.2 | 6.4 | 0.00 | 0.00 | 0.00 | 58 | 1013.4 |
| 20260503052732 | 17 | 181 | 3.2 | 6.4 | 0.00 | 0.00 | 0.00 | 58 | 1013.4 |
| 20260503052235 | 17 | 211 | 3.2 | 6.4 | 0.00 | 0.00 | 0.00 | 57 | 1013.4 |
| 20260503051733 | 17 | 213 | 3.2 | 6.4 | 0.00 | 0.00 | 0.00 | 60 | 1013.3 |
| 20260503051230 | 18 | 238 | 1.6 | 3.2 | 0.00 | 0.00 | 0.00 | 59 | 1013.3 |
| 20260503050714 | 18 | 221 | 1.6 | 4.8 | 0.00 | 0.00 | 0.00 | 56 | 1013.3 |
| 20260503050206 | 18 | 225 | 1.6 | 4.8 | 0.00 | 0.00 | 0.00 | 53 | 1013.3 |
| 20260503045705 | 18 | 348 | 1.6 | 4.8 | 0.00 | 0.00 | 0.00 | 45 | 1013.3 |
| 20260503045450 | 18 | 331 | 3.2 | 4.8 | 0.00 | 0.00 | 0.00 | 45 | 1013.3 |
| 20260503044708 | 19 | 326 | 1.6 | 4.8 | 0.00 | 0.00 | 0.00 | 47 | 1013.0 |
| 20260503044202 | 19 | 38 | 1.6 | 4.8 | 0.00 | 0.00 | 0.00 | 43 | 1013.0 |
| 20260503043943 | 19 | 84 | 1.6 | 4.8 | 0.00 | 0.00 | 0.00 | 45 | 1013.0 |
| 20260503043451 | 20 | 174 | 1.6 | 4.8 | 0.00 | 0.00 | 0.00 | 47 | 1012.9 |
| 20260503042703 | 20 | 135 | 3.2 | 6.4 | 0.00 | 0.00 | 0.00 | 44 | 1012.9 |
| 20260503042446 | 20 | 132 | 3.2 | 8.0 | 0.00 | 0.00 | 0.00 | 43 | 1012.9 |
| 20260503041952 | 20 | 113 | 1.6 | 8.0 | 0.00 | 0.00 | 0.00 | 43 | 1012.8 |
| 20260503041202 | 20 | 70 | 1.6 | 6.4 | 0.00 | 0.00 | 0.00 | 43 | 1012.8 |
| 20260503040702 | 20 | 52 | 1.6 | 6.4 | 0.00 | 0.00 | 0.00 | 43 | 1012.8 |
| 20260503040204 | 20 | 19 | 1.6 | 4.8 | 0.00 | 0.00 | 0.00 | 44 | 1012.4 |
| 20260503035703 | 20 | 74 | 1.6 | 6.4 | 0.00 | 0.00 | 0.00 | 42 | 1012.4 |
| 20260503035202 | 20 | 81 | 1.6 | 6.4 | 0.00 | 0.00 | 0.00 | 42 | 1012.4 |
| 20260503034703 | 20 | 103 | 3.2 | 11.3 | 0.00 | 0.00 | 0.00 | 42 | 1012.3 |
| 20260503034205 | 20 | 75 | 4.8 | 11.3 | 0.00 | 0.00 | 0.00 | 42 | 1012.3 |
| 20260503033702 | 21 | 70 | 4.8 | 8.0 | 0.00 | 0.00 | 0.00 | 42 | 1012.3 |
| 20260503033201 | 21 | 70 | 6.4 | 11.3 | 0.00 | 0.00 | 0.00 | 41 | 1012.3 |
| 20260503032950 | 21 | 78 | 6.4 | 11.3 | 0.00 | 0.00 | 0.00 | 41 | 1012.3 |
| 20260503032159 | 21 | 62 | 6.4 | 11.3 | 0.00 | 0.00 | 0.00 | 41 | 1012.3 |
| 20260503031701 | 21 | 126 | 6.4 | 11.3 | 0.00 | 0.00 | 0.00 | 40 | 1012.0 |
| 20260503031159 | 21 | 89 | 6.4 | 11.3 | 0.00 | 0.00 | 0.00 | 41 | 1012.0 |
| 20260503030700 | 21 | 88 | 6.4 | 16.1 | 0.00 | 0.00 | 0.00 | 41 | 1012.0 |
| 20260503030158 | 21 | 117 | 8.0 | 16.1 | 0.00 | 0.00 | 0.00 | 41 | 1011.8 |
| 20260503025707 | 21 | 51 | 9.7 | 17.7 | 0.00 | 0.00 | 0.00 | 40 | 1011.8 |
| 20260503025204 | 22 | 83 | 8.0 | 17.7 | 0.00 | 0.00 | 0.00 | 40 | 1011.8 |
| 20260503024713 | 22 | 46 | 6.4 | 16.1 | 0.00 | 0.00 | 0.00 | 41 | 1011.8 |
| 20260503023654 | 22 | 96 | 8.0 | 14.5 | 0.00 | 0.00 | 0.00 | 40 | 1011.8 |
| 20260503022634 | 22 | 53 | 8.0 | 16.1 | 0.00 | 0.00 | 0.00 | 40 | 1011.7 |
| 20260503022135 | 22 | 76 | 9.7 | 17.7 | 0.00 | 0.00 | 0.00 | 39 | 1011.7 |
| 20260503021630 | 22 | 81 | 11.3 | 20.9 | 0.00 | 0.00 | 0.00 | 39 | 1011.7 |
| 20260503021130 | 22 | 112 | 11.3 | 20.9 | 0.00 | 0.00 | 0.00 | 39 | 1011.7 |
| 20260503020633 | 22 | 101 | 9.7 | 17.7 | 0.00 | 0.00 | 0.00 | 38 | 1011.7 |
| 20260503020140 | 22 | 89 | 8.0 | 17.7 | 0.00 | 0.00 | 0.00 | 38 | 1011.6 |
| 20260503015645 | 22 | 134 | 9.7 | 17.7 | 0.00 | 0.00 | 0.00 | 38 | 1011.6 |
| 20260503015127 | 22 | 119 | 8.0 | 17.7 | 0.00 | 0.00 | 0.00 | 38 | 1011.6 |
| 20260503014615 | 22 | 109 | 9.7 | 17.7 | 0.00 | 0.00 | 0.00 | 39 | 1011.6 |
| 20260503014109 | 23 | 108 | 9.7 | 17.7 | 0.00 | 0.00 | 0.00 | 38 | 1011.6 |
| 20260503013609 | 23 | 109 | 8.0 | 17.7 | 0.00 | 0.00 | 0.00 | 38 | 1011.6 |
| 20260503013111 | 23 | 80 | 8.0 | 17.7 | 0.00 | 0.00 | 0.00 | 40 | 1011.7 |
| 20260503012613 | 23 | 78 | 8.0 | 16.1 | 0.00 | 0.00 | 0.00 | 39 | 1011.7 |
| 20260503012106 | 23 | 112 | 8.0 | 16.1 | 0.00 | 0.00 | 0.00 | 39 | 1011.7 |
| 20260503011611 | 23 | 117 | 9.7 | 19.3 | 0.00 | 0.00 | 0.00 | 40 | 1011.6 |
| 20260503011110 | 23 | 80 | 9.7 | 19.3 | 0.00 | 0.00 | 0.00 | 40 | 1011.6 |
| 20260503010606 | 23 | 73 | 8.0 | 14.5 | 0.00 | 0.00 | 0.00 | 40 | 1011.6 |
| 20260503010348 | 23 | 84 | 8.0 | 17.7 | 0.00 | 0.00 | 0.00 | 40 | 1011.8 |
| 20260503005601 | 23 | 41 | 9.7 | 17.7 | 0.00 | 0.00 | 0.00 | 40 | 1011.8 |
| 20260503005102 | 23 | 84 | 9.7 | 17.7 | 0.00 | 0.00 | 0.00 | 39 | 1011.8 |
| 20260503004602 | 23 | 107 | 8.0 | 17.7 | 0.00 | 0.00 | 0.00 | 39 | 1011.8 |
| 20260503004100 | 23 | 96 | 8.0 | 14.5 | 0.00 | 0.00 | 0.00 | 39 | 1011.8 |
| 20260503003604 | 23 | 111 | 6.4 | 12.9 | 0.00 | 0.00 | 0.00 | 40 | 1011.8 |
| 20260503003105 | 23 | 145 | 6.4 | 12.9 | 0.00 | 0.00 | 0.00 | 39 | 1011.8 |
| 20260503002605 | 22 | 104 | 8.0 | 16.1 | 0.00 | 0.00 | 0.00 | 41 | 1011.8 |
| 20260503002100 | 22 | 100 | 11.3 | 17.7 | 0.00 | 0.00 | 0.00 | 41 | 1011.8 |
| 20260503001845 | 22 | 67 | 9.7 | 17.7 | 0.00 | 0.00 | 0.00 | 41 | 1011.9 |
| 20260503001102 | 22 | 98 | 9.7 | 17.7 | 0.00 | 0.00 | 0.00 | 42 | 1011.9 |
| 20260503000602 | 22 | 70 | 9.7 | 16.1 | 0.00 | 0.00 | 0.00 | 42 | 1011.9 |
| 20260503000103 | 22 | 63 | 8.0 | 16.1 | 0.00 | 0.00 | 0.00 | 42 | 1012.0 |
| 20260502235603 | 22 | 48 | 8.0 | 16.1 | 0.00 | 0.00 | 0.00 | 43 | 1012.0 |
| 20260502235102 | 22 | 88 | 11.3 | 19.3 | 0.00 | 0.00 | 0.00 | 43 | 1012.3 |
| 20260502234606 | 22 | 65 | 9.7 | 19.3 | 0.00 | 0.00 | 0.00 | 43 | 1012.3 |
| 20260502234101 | 22 | 73 | 8.0 | 14.5 | 0.00 | 0.00 | 0.00 | 45 | 1012.3 |
| 20260502233850 | 22 | 115 | 6.4 | 14.5 | 0.00 | 0.00 | 0.00 | 44 | 1012.6 |
| 20260502232545 | 22 | 55 | 6.4 | 14.5 | 0.00 | 0.00 | 0.00 | 45 | 1012.6 |